OBJECT K

Satellite information

Favourite Embed

Satellite Type and Status

UNKNOWNIN ORBIT

Key statistics

Satellite OBJECT K at a glance.

Uptime

274

Days in orbit

Revolutions

≈ 15.3

Per day

Orbit

SSO

Sun Synchronous Orbit

Inclination

97.4

Latest

Satellite identification and parameters

Extended collection of information and parameters for OBJECT K.

Object identification

Identified? True

Debris? False

Object name: OBJECT K

International designator: 2025-052K

Object number (NORAD): 63219

Object ID (CCSDS): 63219

Country: TO BE DETERMINED/UNKNOWN (TBD)

Current information (Y/N): Y

RCS size: SMALL

Orbital parameters

Period: 94.323 minutes

Inclination: 97.4082 deg

SMA: 6863.907 km

Apoapsis: 489.473 km

Periapsis: 482.07 km

RAAN: 239.2986 deg

Eccentricy: 0.00053928

Argument of periapsis: 69.8318 deg

Mean anomaly: 290.3501 deg

Mean motion: 15.26671865 rev/day

Mean motion (dot): 0.00018854 rev/day2

B* drag term: 0.0007199713 1/REarth

Two-line elements (TLE)

Creation date: Dec. 14, 2025, 3:07 a.m.

Reference frame: TEME

Reference center: EARTH

Epoch: Dec. 13, 2025, 4:33 p.m. UTC

TLE line 0: 0 OBJECT K

TLE line 1: 1 63219U 25052K 25347.68999682 .00018854 00000-0 71997-3 0 9995

TLE line 2: 2 63219 97.4082 239.2986 0005393 69.8318 290.3501 15.26671865 41728

Live tracking on map

Real-time ground track for satellite OBJECT K.

In-orbit conjunctions

There are no conjunctions computed for OBJECT K, at the moment. Check back to stay up to date, as we update our databases every day.

Go to all conjunctions

Associated space launch

Dedicated rideshare flight to a sun-synchronous orbit with dozens of small microsatellites and nanosatellites for commercial and government customers.

OBJECT K was lifted into orbit during the mission ‘Falcon 9 Block 5 | Transporter 13 (Dedicated SSO Rideshare)’, on board a Falcon 9 space rocket.

The launch took place on March 15, 2025, 6:43 a.m. from Space Launch Complex 4E.

For more information about the launch, click the button.

Launch to space Falcon 9 Block 5 | Transporter 13 (Dedicated SSO Rideshare)
Falcon 9 Block 5 | Transporter 13 (Dedicated SSO Rideshare)

Agency: SpaceX

Status: Launch Successful

Launch date: March 15, 2025, 6:43 a.m. UTC

Rocket: Falcon 9

Launch pad: Space Launch Complex 4E

Location: Vandenberg SFB, CA, USA

...

Latest news about this satellite

News about space launch
Varda Space reentry capsule lands in Australia, completes hypersonic research mission

W-3 focused on gathering data for military hypersonic research. The post Varda Space reentry capsule lands in Australia, completes hypersonic research mission appeared first on SpaceNews.

News about space launch
Intelligence and dual-use commercial satellites launch on Transporter-13

Among the 74 payloads on SpaceX’s Transporter-13 mission was a technology demonstrator from the National Reconnaissance Office The post Intelligence and dual-use commercial satellites launch on Transporter-13 appeared first on SpaceNews.

News about space launch
NASA’s EZIE Launches on Mission to Study Earth’s Electrojets

Under the nighttime California sky, NASA’s EZIE (Electrojet Zeeman Imaging Explorer) mission launched aboard a SpaceX Falcon 9 rocket at 11:43 p.m. PDT on March 14. Taking off from Vandenberg Space Force Base near Santa Barbara, the EZIE mission’s trio of...


Newsletter sign-up

Weekly statistics, charts and insights to help you stay on top of the space industry.